This is the latest recevied weather packets stored in our database for station/object OK3FM-14. If no packets are shown the sender has not sent any weather packets the latest 10 day(s).
| Time | Temp. | Humidity | Pressure | Rain* | Wind** | Luminosity | Snow |
|---|---|---|---|---|---|---|---|
| 1787971049 | 15.56° C | 93% | 1016.7 hPa | - | - | - | - |
| 1787970448 | 15.56° C | 92% | 1016.6 hPa | - | - | - | - |
| 1787969848 | 15.56° C | 92% | 1016.7 hPa | - | - | - | - |
| 1787969248 | 15.56° C | 91% | 1016.6 hPa | - | - | - | - |
| 1787968649 | 15.56° C | 90% | 1016.5 hPa | - | - | - | - |
| 1787968049 | 15.56° C | 90% | 1016.3 hPa | - | - | - | - |
| 1787967448 | 15.56° C | 91% | 1016 hPa | - | - | - | - |
| 1787966849 | 15.56° C | 91% | 1016.6 hPa | - | - | - | - |
| 1787966248 | 15.56° C | 93% | 1016.5 hPa | - | - | - | - |
| 1787965648 | 16.11° C | 92% | 1016.7 hPa | - | - | - | - |
| 1787965048 | 16.11° C | 91% | 1016.9 hPa | - | - | - | - |
| 1787964448 | 16.11° C | 91% | 1017.2 hPa | - | - | - | - |
| 1787963848 | 16.11° C | 91% | 1017.2 hPa | - | - | - | - |
| 1787963251 | 16.11° C | 91% | 1016.9 hPa | - | - | - | - |
| 1787962649 | 16.67° C | 91% | 1017.1 hPa | - | - | - | - |
| 1787962049 | 16.67° C | 93% | 1017.2 hPa | - | - | - | - |
| 1787961449 | 16.67° C | 95% | 1017.2 hPa | - | - | - | - |
| 1787960848 | 16.67° C | 92% | 1017.1 hPa | - | - | - | - |
| 1787960250 | 17.22° C | 92% | 1017.2 hPa | - | - | - | - |
| 1787959649 | 17.22° C | 93% | 1017.6 hPa | - | - | - | - |
| 1787959048 | 17.22° C | 92% | 1017.5 hPa | - | - | - | - |
| 1787958449 | 17.22° C | 90% | 1017.6 hPa | - | - | - | - |
| 1787957849 | 17.22° C | 90% | 1017.5 hPa | - | - | - | - |
| 1787957249 | 17.78° C | 90% | 1017.2 hPa | - | - | - | - |
| 1787956650 | 17.78° C | 93% | 1016.9 hPa | - | - | - | - |
* Rain since midnight (hover to see other rain measurements)
** Current wind speed in m/s (hover to see current wind gust speed)